EJA303 KVNY-KMRY

Flight info

Callsign EJA303
Flight time 0h 50m
Altitude 22000
Route KVNY IPIHO CASTA GMN COREZ AVE FLW V485 REDDE SNS ZEBED MINCK RW10R KMRY
Aircraft C700/M-V/N

Departure

Time 2026-05-09 00:03
Airport Van Nuys Airport (KVNY)

Arrival

Time 2026-05-09 00:53
Airport Monterey Regional Airport (KMRY)
Time Latitude Longitude Altitude Speed Heading
2026-05-08 23:57 34.21766 -118.49292 801 ft 0 kts 123°
2026-05-09 00:00 34.21758 -118.49280 801 ft 5 kts 137°
2026-05-09 00:01 34.21722 -118.49257 800 ft 9 kts 86°
2026-05-09 00:01 34.21766 -118.49234 800 ft 7 kts
2026-05-09 00:01 34.21837 -118.49237 802 ft 11 kts 359°
2026-05-09 00:01 34.21856 -118.49224 802 ft 0 kts 39°
2026-05-09 00:02 34.21876 -118.49197 803 ft 11 kts 70°
2026-05-09 00:02 34.21823 -118.49117 801 ft 18 kts 176°
2026-05-09 00:03 34.21403 -118.49076 790 ft 106 kts 175°
2026-05-09 00:03 34.20417 -118.49001 902 ft 167 kts 177°
2026-05-09 00:03 34.19208 -118.49013 1856 ft 176 kts 182°
2026-05-09 00:03 34.17911 -118.49076 3071 ft 195 kts 187°
2026-05-09 00:04 34.16674 -118.49797 4147 ft 207 kts 228°
2026-05-09 00:04 34.16011 -118.51450 4972 ft 237 kts 263°
2026-05-09 00:04 34.16331 -118.53460 5730 ft 265 kts 299°
2026-05-09 00:04 34.17661 -118.55021 6483 ft 272 kts 331°
2026-05-09 00:05 34.19422 -118.55864 7199 ft 271 kts 340°
2026-05-09 00:05 34.21192 -118.56658 7905 ft 272 kts 335°
2026-05-09 00:05 34.22904 -118.57628 8618 ft 274 kts 334°
2026-05-09 00:05 34.24678 -118.58564 9366 ft 281 kts 336°
2026-05-09 00:06 34.26490 -118.59457 10090 ft 287 kts 335°
2026-05-09 00:06 34.28381 -118.60368 10799 ft 290 kts 336°
2026-05-09 00:06 34.30220 -118.61272 11497 ft 289 kts 336°
2026-05-09 00:06 34.32092 -118.62194 12221 ft 290 kts 336°
2026-05-09 00:07 34.33966 -118.63122 12966 ft 292 kts 336°
2026-05-09 00:07 34.35857 -118.64055 13726 ft 294 kts 336°
2026-05-09 00:07 34.37760 -118.64993 14420 ft 296 kts 336°
2026-05-09 00:07 34.39678 -118.65937 15130 ft 298 kts 336°
2026-05-09 00:08 34.41601 -118.66887 15845 ft 301 kts 336°
2026-05-09 00:08 34.43557 -118.67854 16584 ft 306 kts 336°
2026-05-09 00:08 34.45539 -118.68830 17341 ft 309 kts 336°
2026-05-09 00:08 34.47547 -118.69821 18116 ft 312 kts 336°
2026-05-09 00:09 34.49549 -118.70812 18804 ft 315 kts 336°
2026-05-09 00:09 34.51587 -118.71820 19496 ft 317 kts 336°
2026-05-09 00:09 34.53645 -118.72839 20210 ft 321 kts 336°
2026-05-09 00:09 34.55725 -118.73871 20938 ft 325 kts 336°
2026-05-09 00:10 34.57829 -118.74911 21676 ft 328 kts 336°
2026-05-09 00:10 34.59983 -118.75981 22000 ft 345 kts 336°
2026-05-09 00:10 34.62213 -118.77090 22012 ft 343 kts 334°
2026-05-09 00:10 34.64397 -118.78170 22011 ft 334 kts 336°
2026-05-09 00:11 34.66518 -118.79219 22000 ft 326 kts 334°
2026-05-09 00:11 34.68603 -118.80260 22005 ft 322 kts 334°
2026-05-09 00:11 34.70686 -118.81297 22014 ft 326 kts 335°
2026-05-09 00:11 34.72798 -118.82347 22021 ft 330 kts 336°
2026-05-09 00:12 34.74928 -118.83407 22024 ft 333 kts 334°
2026-05-09 00:12 34.77076 -118.84480 22019 ft 332 kts 335°
2026-05-09 00:12 34.79211 -118.85538 22013 ft 331 kts 335°
2026-05-09 00:12 34.81217 -118.86787 22015 ft 325 kts 324°
2026-05-09 00:13 34.83076 -118.88341 22020 ft 324 kts 324°
2026-05-09 00:13 34.84956 -118.89874 22015 ft 326 kts 324°
2026-05-09 00:13 34.86849 -118.91406 22022 ft 327 kts 324°
2026-05-09 00:13 34.88740 -118.92956 22020 ft 328 kts 324°
2026-05-09 00:14 34.90638 -118.94519 22021 ft 329 kts 323°
2026-05-09 00:14 34.92528 -118.96075 22007 ft 327 kts 324°
2026-05-09 00:14 34.94412 -118.97617 22006 ft 326 kts 324°
2026-05-09 00:14 34.96295 -118.99157 22013 ft 324 kts 324°
2026-05-09 00:15 34.98163 -119.00696 22004 ft 325 kts 324°
2026-05-09 00:15 35.00021 -119.02226 21996 ft 329 kts 325°
2026-05-09 00:15 35.01927 -119.03793 22004 ft 331 kts 325°
2026-05-09 00:15 35.03839 -119.05368 22012 ft 332 kts 324°
2026-05-09 00:16 35.05754 -119.06945 21999 ft 331 kts 324°
2026-05-09 00:16 35.07655 -119.08512 22006 ft 329 kts 324°
2026-05-09 00:16 35.09551 -119.10076 22002 ft 329 kts 324°
2026-05-09 00:16 35.11443 -119.11637 22002 ft 328 kts 324°
2026-05-09 00:17 35.13382 -119.13240 21989 ft 348 kts 324°
2026-05-09 00:17 35.15474 -119.14970 21995 ft 373 kts 325°
2026-05-09 00:17 35.17644 -119.16762 21992 ft 377 kts 325°
2026-05-09 00:17 35.19781 -119.18526 21989 ft 372 kts 325°
2026-05-09 00:18 35.21910 -119.20289 21968 ft 369 kts 325°
2026-05-09 00:18 35.24028 -119.22045 21965 ft 367 kts 325°
2026-05-09 00:18 35.26144 -119.23799 21960 ft 368 kts 325°
2026-05-09 00:18 35.28271 -119.25563 21972 ft 370 kts 325°
2026-05-09 00:19 35.30401 -119.27331 21960 ft 370 kts 325°
2026-05-09 00:19 35.32533 -119.29100 21968 ft 370 kts 325°
2026-05-09 00:19 35.34661 -119.30869 21959 ft 369 kts 325°
2026-05-09 00:19 35.36788 -119.32638 21962 ft 369 kts 325°
2026-05-09 00:20 35.38913 -119.34406 21963 ft 369 kts 325°
2026-05-09 00:20 35.41035 -119.36173 21963 ft 369 kts 325°
2026-05-09 00:20 35.43162 -119.37945 21960 ft 369 kts 325°
2026-05-09 00:20 35.45256 -119.39691 21958 ft 369 kts 325°
2026-05-09 00:21 35.47376 -119.41460 21964 ft 369 kts 325°
2026-05-09 00:21 35.49499 -119.43232 21959 ft 368 kts 325°
2026-05-09 00:21 35.51612 -119.45011 21962 ft 368 kts 323°
2026-05-09 00:21 35.53512 -119.47105 21955 ft 367 kts 312°
2026-05-09 00:22 35.55067 -119.49588 21960 ft 367 kts 302°
2026-05-09 00:22 35.56227 -119.52374 21954 ft 367 kts 292°
2026-05-09 00:22 35.56963 -119.55379 21966 ft 368 kts 283°
2026-05-09 00:22 35.57518 -119.58453 21965 ft 368 kts 283°
2026-05-09 00:23 35.58084 -119.61519 21966 ft 368 kts 283°
2026-05-09 00:23 35.58645 -119.64554 21963 ft 368 kts 283°
2026-05-09 00:23 35.59213 -119.67658 21967 ft 368 kts 283°
2026-05-09 00:23 35.59768 -119.70702 21963 ft 368 kts 283°
2026-05-09 00:24 35.60329 -119.73774 21976 ft 369 kts 283°
2026-05-09 00:24 35.60889 -119.76842 21975 ft 369 kts 283°
2026-05-09 00:24 35.61450 -119.79921 21970 ft 369 kts 283°
2026-05-09 00:24 35.62002 -119.83002 21985 ft 369 kts 282°
2026-05-09 00:25 35.62109 -119.86147 21974 ft 371 kts 265°
2026-05-09 00:25 35.61436 -119.89209 21970 ft 375 kts 248°
2026-05-09 00:25 35.60440 -119.92159 21960 ft 372 kts 259°
2026-05-09 00:25 35.60433 -119.95298 21992 ft 369 kts 282°
2026-05-09 00:26 35.61124 -119.98331 21989 ft 369 kts 289°
2026-05-09 00:26 35.61966 -120.01306 21985 ft 369 kts 289°
2026-05-09 00:26 35.62705 -120.04314 21983 ft 368 kts 284°
2026-05-09 00:26 35.63032 -120.06365 21989 ft 368 kts 280°
2026-05-09 00:27 35.63346 -120.09472 21986 ft 367 kts 277°
2026-05-09 00:27 35.63659 -120.12588 21988 ft 366 kts 279°
2026-05-09 00:27 35.64101 -120.15670 21977 ft 365 kts 282°
2026-05-09 00:27 35.64570 -120.18747 21989 ft 366 kts 281°
2026-05-09 00:28 35.64980 -120.21842 21990 ft 368 kts 280°
2026-05-09 00:28 35.65377 -120.24904 22002 ft 369 kts 282°
2026-05-09 00:28 35.66127 -120.27911 21993 ft 368 kts 292°
2026-05-09 00:28 35.67300 -120.30696 22008 ft 367 kts 302°
2026-05-09 00:29 35.68852 -120.33173 22016 ft 366 kts 313°
2026-05-09 00:29 35.70618 -120.35419 22013 ft 364 kts 314°
2026-05-09 00:29 35.72378 -120.37668 22024 ft 364 kts 313°
2026-05-09 00:29 35.74125 -120.39918 22031 ft 363 kts 313°
2026-05-09 00:30 35.75875 -120.42164 22019 ft 364 kts 313°
2026-05-09 00:30 35.77633 -120.44414 22020 ft 365 kts 313°
2026-05-09 00:30 35.79397 -120.46676 22028 ft 366 kts 313°
2026-05-09 00:30 35.81159 -120.48940 22028 ft 367 kts 313°
2026-05-09 00:31 35.82924 -120.51211 22035 ft 367 kts 313°
2026-05-09 00:31 35.84690 -120.53483 22028 ft 366 kts 313°
2026-05-09 00:31 35.86448 -120.55744 22008 ft 365 kts 313°
2026-05-09 00:31 35.88209 -120.58012 22014 ft 365 kts 313°
2026-05-09 00:32 35.89963 -120.60273 22011 ft 365 kts 313°
2026-05-09 00:32 35.91694 -120.62506 22010 ft 364 kts 313°
2026-05-09 00:32 35.93445 -120.64768 22017 ft 365 kts 313°
2026-05-09 00:32 35.95202 -120.67037 22021 ft 365 kts 313°
2026-05-09 00:33 35.96952 -120.69298 22011 ft 365 kts 313°
2026-05-09 00:33 35.98707 -120.71566 22015 ft 365 kts 313°
2026-05-09 00:33 36.00465 -120.73843 22022 ft 366 kts 313°
2026-05-09 00:33 36.02226 -120.76124 22018 ft 366 kts 313°
2026-05-09 00:34 36.03960 -120.78368 22024 ft 365 kts 313°
2026-05-09 00:34 36.05709 -120.80640 22025 ft 364 kts 313°
2026-05-09 00:34 36.07458 -120.82910 22019 ft 363 kts 313°
2026-05-09 00:34 36.09197 -120.85167 22017 ft 362 kts 313°
2026-05-09 00:35 36.10934 -120.87424 22023 ft 362 kts 313°
2026-05-09 00:35 36.12674 -120.89687 22014 ft 364 kts 313°
2026-05-09 00:35 36.14420 -120.91961 22033 ft 365 kts 312°
2026-05-09 00:35 36.16173 -120.94242 22029 ft 365 kts 313°
2026-05-09 00:36 36.17925 -120.96525 22026 ft 364 kts 313°
2026-05-09 00:36 36.19672 -120.98804 22044 ft 363 kts 312°
2026-05-09 00:36 36.21386 -121.01042 22050 ft 363 kts 312°
2026-05-09 00:36 36.23124 -121.03310 21840 ft 363 kts 312°
2026-05-09 00:37 36.24849 -121.05564 21393 ft 356 kts 312°
2026-05-09 00:37 36.26528 -121.07759 20946 ft 345 kts 312°
2026-05-09 00:37 36.28153 -121.09886 20500 ft 336 kts 312°
2026-05-09 00:37 36.29743 -121.11967 20063 ft 328 kts 312°
2026-05-09 00:38 36.31294 -121.14000 19645 ft 321 kts 312°
2026-05-09 00:38 36.32819 -121.16000 19234 ft 318 kts 312°
2026-05-09 00:38 36.34337 -121.17991 18822 ft 317 kts 312°
2026-05-09 00:38 36.35855 -121.19984 18417 ft 317 kts 312°
2026-05-09 00:39 36.37370 -121.21972 17961 ft 316 kts 313°
2026-05-09 00:39 36.38877 -121.23956 17542 ft 315 kts 313°
2026-05-09 00:39 36.40380 -121.25931 17114 ft 313 kts 312°
2026-05-09 00:39 36.41855 -121.27871 16707 ft 312 kts 312°
2026-05-09 00:40 36.43341 -121.29827 16302 ft 311 kts 312°
2026-05-09 00:40 36.44822 -121.31778 15915 ft 310 kts 312°
2026-05-09 00:40 36.46295 -121.33720 15531 ft 308 kts 312°
2026-05-09 00:41 36.49225 -121.37584 14781 ft 306 kts 311°
2026-05-09 00:41 36.50680 -121.39507 14416 ft 305 kts 312°
2026-05-09 00:41 36.52126 -121.41420 14076 ft 302 kts 312°
2026-05-09 00:41 36.53565 -121.43321 13698 ft 300 kts 312°
2026-05-09 00:42 36.54974 -121.45182 13308 ft 299 kts 311°
2026-05-09 00:42 36.56394 -121.47062 12942 ft 297 kts 311°
2026-05-09 00:42 36.57800 -121.48926 12561 ft 294 kts 312°
2026-05-09 00:42 36.59194 -121.50772 12183 ft 292 kts 312°
2026-05-09 00:43 36.60584 -121.52614 11811 ft 289 kts 312°
2026-05-09 00:43 36.61947 -121.54423 11442 ft 283 kts 312°
2026-05-09 00:43 36.63279 -121.56190 11074 ft 278 kts 312°
2026-05-09 00:43 36.64570 -121.57964 10697 ft 274 kts 307°
2026-05-09 00:44 36.65534 -121.60003 10318 ft 274 kts 294°
2026-05-09 00:44 36.66089 -121.62273 9943 ft 275 kts 280°
2026-05-09 00:44 36.66200 -121.64650 9540 ft 276 kts 268°
2026-05-09 00:44 36.66078 -121.67041 9166 ft 275 kts 267°
2026-05-09 00:45 36.65973 -121.69414 8785 ft 273 kts 268°
2026-05-09 00:45 36.65871 -121.71779 8418 ft 272 kts 268°
2026-05-09 00:45 36.65765 -121.74117 8062 ft 270 kts 268°
2026-05-09 00:45 36.65658 -121.76414 7709 ft 268 kts 267°
2026-05-09 00:46 36.65552 -121.78723 7362 ft 265 kts 268°
2026-05-09 00:46 36.65447 -121.81008 7021 ft 262 kts 268°
2026-05-09 00:46 36.65343 -121.83264 6674 ft 260 kts 268°
2026-05-09 00:46 36.65238 -121.85505 6348 ft 258 kts 268°
2026-05-09 00:47 36.65135 -121.87725 6008 ft 255 kts 268°
2026-05-09 00:47 36.65033 -121.89917 5646 ft 251 kts 269°
2026-05-09 00:47 36.64930 -121.92050 5275 ft 242 kts 269°
2026-05-09 00:47 36.64836 -121.94090 4909 ft 236 kts 269°
2026-05-09 00:48 36.64741 -121.96106 4535 ft 231 kts 269°
2026-05-09 00:48 36.64644 -121.98083 4154 ft 227 kts 271°
2026-05-09 00:48 36.64554 -122.00029 3774 ft 224 kts 269°
2026-05-09 00:48 36.64438 -122.01924 3599 ft 212 kts 265°
2026-05-09 00:49 36.63785 -122.03506 3590 ft 209 kts 227°
2026-05-09 00:49 36.62489 -122.04348 3594 ft 219 kts 192°
2026-05-09 00:49 36.60971 -122.04049 3603 ft 226 kts 151°
2026-05-09 00:49 36.59928 -122.02697 3591 ft 212 kts 111°
2026-05-09 00:50 36.59715 -122.01010 3584 ft 189 kts 77°
2026-05-09 00:50 36.60143 -121.99564 3586 ft 171 kts 59°
2026-05-09 00:50 36.60648 -121.98255 3588 ft 165 kts 60°
2026-05-09 00:50 36.61134 -121.96978 3591 ft 165 kts 60°
2026-05-09 00:51 36.61621 -121.95698 3617 ft 164 kts 61°
2026-05-09 00:51 36.61818 -121.94282 3607 ft 172 kts 89°
2026-05-09 00:51 36.61538 -121.92805 3614 ft 179 kts 110°
2026-05-09 00:51 36.61042 -121.91404 3503 ft 172 kts 110°
2026-05-09 00:52 36.60576 -121.90005 2924 ft 175 kts 110°
2026-05-09 00:52 36.60135 -121.88687 2719 ft 151 kts 108°
2026-05-09 00:52 36.59753 -121.87554 1994 ft 140 kts 111°
2026-05-09 00:52 36.59391 -121.86414 997 ft 146 kts 115°
2026-05-09 00:53 36.58981 -121.85267 208 ft 141 kts 116°
2026-05-09 00:53 36.58653 -121.84314 220 ft 100 kts 111°
2026-05-09 00:53 36.58542 -121.83973 235 ft 4 kts 120°
2026-05-09 00:53 36.58465 -121.84033 232 ft 13 kts 288°
2026-05-09 00:54 36.58500 -121.84132 228 ft 9 kts 296°
2026-05-09 00:54 36.58532 -121.84229 225 ft 15 kts 292°
2026-05-09 00:54 36.58579 -121.84374 221 ft 21 kts 291°
2026-05-09 00:54 36.58643 -121.84547 215 ft 22 kts 293°
2026-05-09 00:55 36.58719 -121.84741 208 ft 27 kts 298°
2026-05-09 00:55 36.58780 -121.84944 196 ft 22 kts 271°
2026-05-09 00:55 36.58770 -121.84983 195 ft 0 kts 226°